,,Stat6,,Stat2,,Stat8,,Stat9,,Stat10,,Wind1,,Wind1,
time,status,PA1M_AVG,status,PR1M_SUM,status,RH1M_AVG,status,SR1M_AVG,status,TA1M_AVG,status,W1dAve1m,status,W1sAve1m,
2005-05-28, 00:00:00,VALID,917.366,VALID,0,VALID,100,VALID,0,VALID,19.691,VALID,113,VALID,0.729768,
2005-05-28, 00:01:01,VALID,917.358,VALID,0,VALID,100,VALID,0.0169808,VALID,19.6943,VALID,111,VALID,0.51726,
2005-05-28, 00:02:01,VALID,917.347,VALID,0,VALID,100,VALID,0,VALID,19.6975,VALID,117,VALID,0.576823,
2005-05-28, 00:03:01,VALID,917.338,VALID,0,VALID,100,VALID,0,VALID,19.6848,VALID,106,VALID,0.634859,
2005-05-28, 00:04:00,VALID,917.326,VALID,0,VALID,100,VALID,0,VALID,19.6781,VALID,122,VALID,0.731831,
2005-05-28, 00:05:00,VALID,917.314,VALID,0,VALID,100,VALID,0,VALID,19.6816,VALID,119,VALID,0.852325,
2005-05-28, 00:06:01,VALID,917.299,VALID,0,VALID,100,VALID,0,VALID,19.6851,VALID,122,VALID,0.64184,
2005-05-28, 00:07:01,VALID,917.28,VALID,0,VALID,100,VALID,0.0169808,VALID,19.6593,VALID,127,VALID,0.85174,
2005-05-28, 00:08:01,VALID,917.267,VALID,0,VALID,100,VALID,0.0169808,VALID,19.6364,VALID,125,VALID,0.798651,
2005-05-28, 00:09:01,VALID,917.239,VALID,0,VALID,100,VALID,0.0169808,VALID,19.653,VALID,131,VALID,0.819586,
2005-05-28, 00:10:01,VALID,917.239,VALID,0,VALID,100,VALID,0,VALID,19.6466,VALID,129,VALID,1.05742,
2005-05-28, 00:11:01,VALID,917.258,VALID,0,VALID,100,VALID,0.0509425,VALID,19.6461,VALID,126,VALID,1.3056,
2005-05-28, 00:12:01,VALID,917.251,VALID,0,VALID,100,VALID,0.0509425,VALID,19.6687,VALID,107,VALID,1.01962,
2005-05-28, 00:13:01,VALID,917.243,VALID,0,VALID,100,VALID,0.0339617,VALID,19.6687,VALID,111,VALID,0.999219,
2005-05-28, 00:14:01,VALID,917.25,VALID,0,VALID,100,VALID,0.0169808,VALID,19.6851,VALID,134,VALID,1.50208,
2005-05-28, 00:15:01,VALID,917.257,VALID,0,VALID,100,VALID,0.0169808,VALID,19.7047,VALID,128,VALID,1.22011,
2005-05-28, 00:16:01,VALID,917.248,VALID,0,VALID,100,VALID,0.0169808,VALID,19.7074,VALID,107,VALID,0.925195,
2005-05-28, 00:17:01,VALID,917.255,VALID,0,VALID,100,VALID,0.0339617,VALID,19.7107,VALID,107,VALID,0.795099,
2005-05-28, 00:18:01,VALID,917.259,VALID,0,VALID,100,VALID,0.0169808,VALID,19.6717,VALID,113,VALID,0.620808,
2005-05-28, 00:19:01,VALID,917.245,VALID,0,VALID,100,VALID,0,VALID,19.6627,VALID,119,VALID,0.554129,
2005-05-28, 00:20:01,VALID,917.23,VALID,0,VALID,100,VALID,0,VALID,19.6528,VALID,102,VALID,0.834335,
2005-05-28, 00:21:01,VALID,917.221,VALID,0,VALID,100,VALID,0,VALID,19.6431,VALID,100,VALID,0.774009,
2005-05-28, 00:22:01,VALID,917.218,VALID,0,VALID,100,VALID,-0.0849042,VALID,19.6443,VALID,102,VALID,0.672433,
2005-05-28, 00:23:01,VALID,917.202,VALID,0,VALID,100,VALID,-0.0849042,VALID,19.6381,VALID,95,VALID,0.541602,
2005-05-28, 00:24:00,VALID,917.182,VALID,0,VALID,100,VALID,-0.101885,VALID,19.619,VALID,93,VALID,0.744474,
2005-05-28, 00:25:00,VALID,917.188,VALID,0,VALID,100,VALID,-0.0849042,VALID,19.6414,VALID,96,VALID,0.573103,
2005-05-28, 00:26:00,VALID,917.159,VALID,0,VALID,100,VALID,-0.0849042,VALID,19.6183,VALID,96,VALID,0.432292,
2005-05-28, 00:27:00,VALID,917.157,VALID,0,VALID,100,VALID,-0.0679233,VALID,19.6282,VALID,96,VALID,0.313772,
2005-05-28, 00:28:00,VALID,917.142,VALID,0,VALID,100,VALID,-0.0679233,VALID,19.6284,VALID,110,VALID,0.42793,
2005-05-28, 00:29:00,VALID,917.133,VALID,0,VALID,100,VALID,-0.0679233,VALID,19.6386,VALID,110,VALID,0.503906,
2005-05-28, 00:30:00,VALID,917.124,VALID,0,VALID,100,VALID,-0.101885,VALID,19.6384,VALID,121,VALID,0.557355,
2005-05-28, 00:31:00,VALID,917.121,VALID,0,VALID,100,VALID,-0.0849042,VALID,19.6252,VALID,126,VALID,0.553757,
2005-05-28, 00:32:00,VALID,917.109,VALID,0,VALID,100,VALID,-0.101885,VALID,19.6284,VALID,118,VALID,0.523242,
2005-05-28, 00:33:00,VALID,917.12,VALID,0,VALID,100,VALID,-0.101885,VALID,19.6386,VALID,118,VALID,0.490371,
2005-05-28, 00:34:00,VALID,917.119,VALID,0,VALID,100,VALID,-0.101885,VALID,19.626,VALID,88,VALID,0.65282,
2005-05-28, 00:35:00,VALID,917.146,VALID,0,VALID,100,VALID,-0.101885,VALID,19.5862,VALID,84,VALID,0.685683,
2005-05-28, 00:36:00,VALID,917.144,VALID,0,VALID,100,VALID,-0.0679233,VALID,19.5514,VALID,58,VALID,0.768111,
2005-05-28, 00:37:00,VALID,917.155,VALID,0,VALID,100,VALID,0,VALID,19.4787,VALID,71,VALID,0.87843,
2005-05-28, 00:38:00,VALID,917.161,VALID,0,VALID,100,VALID,0.0339617,VALID,19.4459,VALID,68,VALID,0.996711,
2005-05-28, 00:39:00,VALID,917.158,VALID,0,VALID,100,VALID,0.0169808,VALID,19.4206,VALID,77,VALID,1.06922,
2005-05-28, 00:40:00,VALID,917.141,VALID,0,VALID,100,VALID,0.0339617,VALID,19.4069,VALID,76,VALID,0.993118,
2005-05-28, 00:41:00,VALID,917.131,VALID,0,VALID,100,VALID,0,VALID,19.4303,VALID,81,VALID,1.21373,
2005-05-28, 00:42:00,VALID,917.118,VALID,0,VALID,100,VALID,0,VALID,19.4208,VALID,86,VALID,1.09193,
2005-05-28, 00:43:00,VALID,917.082,VALID,0,VALID,100,VALID,0.0169808,VALID,19.4109,VALID,95,VALID,1.10103,
2005-05-28, 00:44:00,VALID,917.061,VALID,0,VALID,100,VALID,0.0169808,VALID,19.4365,VALID,89,VALID,0.903088,
2005-05-28, 00:45:00,VALID,917.043,VALID,0,VALID,100,VALID,0,VALID,19.4529,VALID,98,VALID,0.898037,
2005-05-28, 00:46:00,VALID,917.035,VALID,0,VALID,100,VALID,0,VALID,19.4526,VALID,84,VALID,1.01105,
2005-05-28, 00:47:00,VALID,917.02,VALID,0,VALID,100,VALID,0,VALID,19.475,VALID,89,VALID,1.23977,
2005-05-28, 00:48:00,VALID,917.023,VALID,0,VALID,100,VALID,0.0339617,VALID,19.5174,VALID,114,VALID,0.880952,
2005-05-28, 00:49:00,VALID,917.028,VALID,0,VALID,100,VALID,0.0339617,VALID,19.5338,VALID,97,VALID,0.673147,
2005-05-28, 00:50:00,VALID,917.021,VALID,0,VALID,100,VALID,0.0339617,VALID,19.5361,VALID,120,VALID,1.26012,
2005-05-28, 00:51:00,VALID,917.031,VALID,0,VALID,100,VALID,0.0339617,VALID,19.5624,VALID,109,VALID,0.884943,
2005-05-28, 00:52:00,VALID,917.013,VALID,0,VALID,100,VALID,0.0339617,VALID,19.5721,VALID,112,VALID,0.815044,
2005-05-28, 00:53:00,VALID,917.015,VALID,0,VALID,100,VALID,0,VALID,19.6046,VALID,107,VALID,1.06345,
2005-05-28, 00:54:00,VALID,917.001,VALID,0,VALID,100,VALID,0.0169808,VALID,19.6041,VALID,111,VALID,0.982195,
2005-05-28, 00:55:00,VALID,916.999,VALID,0,VALID,100,VALID,0.0509425,VALID,19.6175,VALID,100,VALID,0.603849,
2005-05-28, 00:56:00,VALID,917.012,VALID,0,VALID,100,VALID,0.0679233,VALID,19.6073,VALID,106,VALID,0.876562,
2005-05-28, 00:57:00,VALID,917.008,VALID,0,VALID,100,VALID,0.0509425,VALID,19.6178,VALID,101,VALID,0.941602,
2005-05-28, 00:58:00,VALID,917.017,VALID,0,VALID,100,VALID,0.0169808,VALID,19.6044,VALID,96,VALID,0.917333,
2005-05-28, 00:59:00,VALID,917.023,VALID,0,VALID,100,VALID,0.0339617,VALID,19.6006,VALID,97,VALID,0.850038,
2005-05-28, 01:00:00,VALID,917.024,VALID,0,VALID,100,VALID,0,VALID,19.5847,VALID,104,VALID,0.594658,
2005-05-28, 01:01:00,VALID,917.022,VALID,0,VALID,100,VALID,0.0509425,VALID,19.5783,VALID,105,VALID,0.663517,
2005-05-28, 01:02:00,VALID,917.001,VALID,0,VALID,100,VALID,0.0339617,VALID,19.5718,VALID,88,VALID,0.585156,
2005-05-28, 01:03:00,VALID,916.986,VALID,0,VALID,100,VALID,0.0339617,VALID,19.5589,VALID,85,VALID,0.204985,
2005-05-28, 01:04:00,VALID,916.97,VALID,0,VALID,100,VALID,0.0169808,VALID,19.5495,VALID,99,VALID,0.750521,
2005-05-28, 01:05:00,VALID,916.947,VALID,0,VALID,100,VALID,0.0169808,VALID,19.5299,VALID,89,VALID,0.556784,
2005-05-28, 01:06:00,VALID,916.941,VALID,0,VALID,100,VALID,0.0169808,VALID,19.5202,VALID,89,VALID,0.386265,
2005-05-28, 01:07:00,VALID,916.928,VALID,0,VALID,100,VALID,0,VALID,19.5209,VALID,105,VALID,0.480655,
2005-05-28, 01:08:00,VALID,916.926,VALID,0,VALID,100,VALID,-0.0169808,VALID,19.5105,VALID,110,VALID,1.22378,
2005-05-28, 01:09:00,VALID,916.922,VALID,0,VALID,100,VALID,-0.0339617,VALID,19.5308,VALID,93,VALID,0.846839,
2005-05-28, 01:10:00,VALID,916.931,VALID,0,VALID,100,VALID,-0.0339617,VALID,19.511,VALID,87,VALID,0.577035,
2005-05-28, 01:11:00,VALID,916.949,VALID,0,VALID,100,VALID,-0.0169808,VALID,19.4978,VALID,78,VALID,0.656631,
2005-05-28, 01:12:00,VALID,916.951,VALID,0,VALID,100,VALID,0,VALID,19.4727,VALID,71,VALID,0.613104,
2005-05-28, 01:13:00,VALID,916.954,VALID,0,VALID,100,VALID,0,VALID,19.4367,VALID,71,VALID,0.795058,
2005-05-28, 01:14:00,VALID,916.948,VALID,0,VALID,100,VALID,-0.0169808,VALID,19.4499,VALID,98,VALID,1.05887,
2005-05-28, 01:15:00,VALID,916.946,VALID,0,VALID,100,VALID,-0.0339617,VALID,19.4596,VALID,106,VALID,0.985742,
2005-05-28, 01:16:00,VALID,916.945,VALID,0,VALID,100,VALID,0,VALID,19.466,VALID,108,VALID,1.07304,
2005-05-28, 01:17:00,VALID,916.931,VALID,0,VALID,100,VALID,0,VALID,19.4625,VALID,104,VALID,1.01207,
2005-05-28, 01:18:00,VALID,916.93,VALID,0,VALID,100,VALID,-0.0169808,VALID,19.4558,VALID,109,VALID,1.14862,
2005-05-28, 01:19:00,VALID,916.919,VALID,0,VALID,100,VALID,-0.0169808,VALID,19.4757,VALID,142,VALID,0.573047,
2005-05-28, 01:20:00,VALID,916.905,VALID,0,VALID,100,VALID,-0.0339617,VALID,19.4695,VALID,108,VALID,0.705305,
2005-05-28, 01:21:00,VALID,916.892,VALID,0,VALID,100,VALID,-0.0339617,VALID,19.4692,VALID,107,VALID,0.566406,
2005-05-28, 01:22:00,VALID,916.883,VALID,0,VALID,100,VALID,-0.0339617,VALID,19.4593,VALID,93,VALID,0.278942,
2005-05-28, 01:23:00,VALID,916.859,VALID,0,VALID,100,VALID,-0.0169808,VALID,19.4501,VALID,94,VALID,0.595982,
2005-05-28, 01:24:00,VALID,916.851,VALID,0,VALID,100,VALID,-0.0509425,VALID,19.4538,VALID,99,VALID,0.705171,
2005-05-28, 01:25:00,VALID,916.846,VALID,0,VALID,100,VALID,-0.0509425,VALID,19.4402,VALID,102,VALID,0.6121,
2005-05-28, 01:26:00,VALID,916.833,VALID,0,VALID,100,VALID,-0.0509425,VALID,19.4372,VALID,102,VALID,0.255996,
2005-05-28, 01:27:00,VALID,916.816,VALID,0,VALID,100,VALID,-0.0679233,VALID,19.424,VALID,102,VALID,0.354492,
2005-05-28, 01:28:00,VALID,916.807,VALID,0,VALID,100,VALID,-0.0169808,VALID,19.4245,VALID,102,VALID,0.244234,
2005-05-28, 01:29:00,VALID,916.786,VALID,0,VALID,100,VALID,-0.0509425,VALID,19.4146,VALID,102,VALID,0.780134,
2005-05-28, 01:30:00,VALID,916.767,VALID,0,VALID,100,VALID,-0.0169808,VALID,19.4146,VALID,102,VALID,0.580602,
2005-05-28, 01:31:00,VALID,916.731,VALID,0,VALID,100,VALID,-0.0339617,VALID,19.4044,VALID,102,VALID,0.0425145,
2005-05-28, 01:32:00,VALID,916.707,VALID,0,VALID,100,VALID,-0.0169808,VALID,19.3985,VALID,102,VALID,0.162388,
2005-05-28, 01:33:00,VALID,916.694,VALID,0,VALID,100,VALID,-0.0339617,VALID,19.3756,VALID,102,VALID,0.30816,
2005-05-28, 01:34:00,VALID,916.69,VALID,0,VALID,100,VALID,-0.0169808,VALID,19.3627,VALID,102,VALID,0.445871,
2005-05-28, 01:35:00,VALID,916.679,VALID,0,VALID,100,VALID,-0.0169808,VALID,19.357,VALID,102,VALID,0.578658,
2005-05-28, 01:36:00,VALID,916.688,VALID,0,VALID,100,VALID,0.0169808,VALID,19.3371,VALID,107,VALID,0.729936,
2005-05-28, 01:37:00,VALID,916.683,VALID,0,VALID,100,VALID,-0.118866,VALID,19.3252,VALID,137,VALID,0.825462,
2005-05-28, 01:38:00,VALID,916.696,VALID,0,VALID,100,VALID,-0.152827,VALID,19.3351,VALID,139,VALID,0.817882,
2005-05-28, 01:39:00,VALID,916.685,VALID,0,VALID,100,VALID,-0.101885,VALID,19.3512,VALID,136,VALID,1.07213,
2005-05-28, 01:40:00,VALID,916.677,VALID,0,VALID,100,VALID,-0.101885,VALID,19.3676,VALID,137,VALID,1.20217,
2005-05-28, 01:41:00,VALID,916.667,VALID,0,VALID,100,VALID,-0.152827,VALID,19.3808,VALID,131,VALID,1.07431,
2005-05-28, 01:42:00,VALID,916.659,VALID,0,VALID,100,VALID,-0.135847,VALID,19.3835,VALID,125,VALID,0.984715,
2005-05-28, 01:43:00,VALID,916.645,VALID,0,VALID,100,VALID,-0.135847,VALID,19.3868,VALID,119,VALID,0.763317,
2005-05-28, 01:44:00,VALID,916.621,VALID,0,VALID,100,VALID,-0.118866,VALID,19.3972,VALID,132,VALID,0.824033,
2005-05-28, 01:45:00,VALID,916.613,VALID,0,VALID,100,VALID,-0.0849042,VALID,19.3969,VALID,123,VALID,0.882457,
2005-05-28, 01:46:00,VALID,916.593,VALID,0,VALID,100,VALID,-0.118866,VALID,19.3644,VALID,112,VALID,0.889101,
2005-05-28, 01:47:00,VALID,916.615,VALID,0,VALID,100,VALID,-0.118866,VALID,19.3453,VALID,105,VALID,1.107,
2005-05-28, 01:48:00,VALID,916.606,VALID,0,VALID,100,VALID,-0.135847,VALID,19.342,VALID,112,VALID,1.13494,
2005-05-28, 01:49:00,VALID,916.589,VALID,0,VALID,100,VALID,-0.152827,VALID,19.3358,VALID,106,VALID,1.19609,
2005-05-28, 01:50:00,VALID,916.582,VALID,0,VALID,100,VALID,-0.135847,VALID,19.3157,VALID,108,VALID,0.961979,
2005-05-28, 01:51:00,VALID,916.562,VALID,0,VALID,100,VALID,-0.0169808,VALID,19.3083,VALID,111,VALID,1.07088,
2005-05-28, 01:52:00,VALID,916.548,VALID,0,VALID,100,VALID,0,VALID,19.2981,VALID,104,VALID,0.747904,
2005-05-28, 01:53:00,VALID,916.516,VALID,0,VALID,100,VALID,-0.0169808,VALID,19.3214,VALID,116,VALID,0.903764,
2005-05-28, 01:54:00,VALID,916.501,VALID,0,VALID,100,VALID,-0.0169808,VALID,19.3281,VALID,117,VALID,0.93022,
2005-05-28, 01:55:00,VALID,916.47,VALID,0,VALID,100,VALID,-0.0169808,VALID,19.311,VALID,108,VALID,0.861779,
2005-05-28, 01:56:00,VALID,916.445,VALID,0,VALID,100,VALID,0,VALID,19.2949,VALID,111,VALID,0.960938,
2005-05-28, 01:57:00,VALID,916.429,VALID,0,VALID,100,VALID,-0.0169808,VALID,19.2951,VALID,112,VALID,1.06632,
2005-05-28, 01:58:00,VALID,916.403,VALID,0,VALID,100,VALID,-0.0169808,VALID,19.2879,VALID,109,VALID,1.08086,
2005-05-28, 01:59:00,VALID,916.383,VALID,0,VALID,100,VALID,0,VALID,19.2621,VALID,108,VALID,0.973514,
2005-05-28, 02:00:00,VALID,916.367,VALID,0,VALID,100,VALID,-0.0169808,VALID,19.2755,VALID,108,VALID,0.975229,
2005-05-28, 02:01:00,VALID,916.355,VALID,0,VALID,100,VALID,-0.0169808,VALID,19.2494,VALID,114,VALID,1.01126,
2005-05-28, 02:02:00,VALID,916.337,VALID,0,VALID,100,VALID,-0.0339617,VALID,19.244,VALID,106,VALID,0.916349,
2005-05-28, 02:03:00,VALID,916.335,VALID,0,VALID,100,VALID,-0.0339617,VALID,19.2273,VALID,112,VALID,0.919398,
2005-05-28, 02:04:00,VALID,916.329,VALID,0.2,VALID,100,VALID,0,VALID,19.2172,VALID,113,VALID,0.768787,
2005-05-28, 02:05:00,VALID,916.336,VALID,0,VALID,100,VALID,-0.0339617,VALID,19.2075,VALID,113,VALID,0.88502,
2005-05-28, 02:06:00,VALID,916.341,VALID,0,VALID,100,VALID,-0.0169808,VALID,19.208,VALID,120,VALID,1.00684,
2005-05-28, 02:07:00,VALID,916.346,VALID,0,VALID,100,VALID,-0.0339617,VALID,19.2013,VALID,121,VALID,0.863009,
2005-05-28, 02:08:00,VALID,916.36,VALID,0,VALID,100,VALID,-0.0509425,VALID,19.2013,VALID,125,VALID,0.62282,
2005-05-28, 02:09:00,VALID,916.356,VALID,0,VALID,100,VALID,-0.0339617,VALID,19.1988,VALID,122,VALID,0.585417,
2005-05-28, 02:10:00,VALID,916.356,VALID,0,VALID,100,VALID,0,VALID,19.1782,VALID,126,VALID,0.648256,
2005-05-28, 02:11:00,VALID,916.35,VALID,0,VALID,100,VALID,-0.0169808,VALID,19.172,VALID,122,VALID,0.78311,
2005-05-28, 02:12:00,VALID,916.346,VALID,0,VALID,100,VALID,-0.0509425,VALID,19.1821,VALID,121,VALID,0.781613,
2005-05-28, 02:13:00,VALID,916.341,VALID,0,VALID,100,VALID,-0.0339617,VALID,19.1854,VALID,113,VALID,0.71984,
2005-05-28, 02:14:00,VALID,916.333,VALID,0,VALID,100,VALID,0,VALID,19.1849,VALID,125,VALID,0.873633,
2005-05-28, 02:15:00,VALID,916.343,VALID,0,VALID,100,VALID,-0.0169808,VALID,19.1881,VALID,127,VALID,0.842842,
2005-05-28, 02:16:00,VALID,916.346,VALID,0,VALID,100,VALID,0,VALID,19.201,VALID,118,VALID,0.866616,
2005-05-28, 02:17:00,VALID,916.345,VALID,0,VALID,100,VALID,-0.0339617,VALID,19.2147,VALID,117,VALID,0.657138,
2005-05-28, 02:18:00,VALID,916.348,VALID,0,VALID,100,VALID,0,VALID,19.1881,VALID,131,VALID,0.970567,
2005-05-28, 02:19:00,VALID,916.337,VALID,0,VALID,100,VALID,-0.0169808,VALID,19.2139,VALID,138,VALID,1.24911,
2005-05-28, 02:20:00,VALID,916.335,VALID,0,VALID,100,VALID,0,VALID,19.2308,VALID,140,VALID,1.1835,
2005-05-28, 02:21:00,VALID,916.328,VALID,0,VALID,100,VALID,-0.0339617,VALID,19.2373,VALID,133,VALID,0.897195,
2005-05-28, 02:22:00,VALID,916.32,VALID,0,VALID,100,VALID,0,VALID,19.2243,VALID,124,VALID,0.892969,
2005-05-28, 02:23:00,VALID,916.304,VALID,0,VALID,100,VALID,-0.0169808,VALID,19.2345,VALID,133,VALID,0.731771,
2005-05-28, 02:24:00,VALID,916.29,VALID,0,VALID,100,VALID,-0.0169808,VALID,19.2246,VALID,133,VALID,0.553977,
2005-05-28, 02:25:00,VALID,916.282,VALID,0,VALID,100,VALID,0,VALID,19.2114,VALID,133,VALID,0.534091,
2005-05-28, 02:26:00,VALID,916.277,VALID,0,VALID,100,VALID,-0.0679233,VALID,19.2144,VALID,130,VALID,0.434896,
2005-05-28, 02:27:00,VALID,916.262,VALID,0,VALID,100,VALID,-0.0509425,VALID,19.205,VALID,121,VALID,0.613372,
2005-05-28, 02:28:00,VALID,916.252,VALID,0,VALID,100,VALID,-0.0169808,VALID,19.2047,VALID,119,VALID,0.642671,
2005-05-28, 02:29:00,VALID,916.246,VALID,0,VALID,100,VALID,-0.0169808,VALID,19.2216,VALID,119,VALID,0.651389,
2005-05-28, 02:30:00,VALID,916.237,VALID,0,VALID,100,VALID,-0.0169808,VALID,19.2109,VALID,127,VALID,0.87718,
2005-05-28, 02:31:00,VALID,916.228,VALID,0,VALID,100,VALID,-0.0679233,VALID,19.231,VALID,139,VALID,0.948219,
2005-05-28, 02:32:00,VALID,916.214,VALID,0,VALID,100,VALID,-0.0679233,VALID,19.2345,VALID,135,VALID,0.896913,
2005-05-28, 02:33:00,VALID,916.2,VALID,0,VALID,100,VALID,-0.0509425,VALID,19.2308,VALID,132,VALID,0.774346,
2005-05-28, 02:34:00,VALID,916.181,VALID,0,VALID,100,VALID,-0.0169808,VALID,19.2276,VALID,131,VALID,0.799006,
2005-05-28, 02:35:00,VALID,916.157,VALID,0,VALID,100,VALID,-0.0509425,VALID,19.2343,VALID,131,VALID,0.760938,
2005-05-28, 02:36:00,VALID,916.136,VALID,0,VALID,100,VALID,-0.0169808,VALID,19.241,VALID,131,VALID,0.523256,
2005-05-28, 02:37:00,VALID,916.127,VALID,0,VALID,100,VALID,-0.0339617,VALID,19.2373,VALID,131,VALID,0.481712,
2005-05-28, 02:38:00,VALID,916.11,VALID,0,VALID,100,VALID,0,VALID,19.2348,VALID,131,VALID,0.524023,
2005-05-28, 02:39:00,VALID,916.111,VALID,0,VALID,100,VALID,-0.0509425,VALID,19.1985,VALID,131,VALID,0.413876,
2005-05-28, 02:40:00,VALID,916.111,VALID,0,VALID,100,VALID,-0.0339617,VALID,19.1729,VALID,131,VALID,0.351017,
2005-05-28, 02:41:00,VALID,916.101,VALID,0,VALID,100,VALID,0,VALID,19.1404,VALID,131,VALID,0.438072,
2005-05-28, 02:42:00,VALID,916.117,VALID,0,VALID,100,VALID,-0.0679233,VALID,19.1245,VALID,131,VALID,0.34282,
2005-05-28, 02:43:00,VALID,916.127,VALID,0,VALID,100,VALID,-0.0169808,VALID,19.1019,VALID,131,VALID,0.400618,
2005-05-28, 02:44:00,VALID,916.131,VALID,0,VALID,100,VALID,-0.0509425,VALID,19.1088,VALID,131,VALID,0.585938,
2005-05-28, 02:45:00,VALID,916.142,VALID,0,VALID,100,VALID,-0.0509425,VALID,19.0989,VALID,131,VALID,0.610283,
2005-05-28, 02:46:00,VALID,916.141,VALID,0,VALID,100,VALID,-0.0849042,VALID,19.1081,VALID,131,VALID,0.583734,
2005-05-28, 02:47:00,VALID,916.148,VALID,0,VALID,100,VALID,-0.0169808,VALID,19.1113,VALID,121,VALID,0.616629,
2005-05-28, 02:48:00,VALID,916.155,VALID,0,VALID,100,VALID,-0.0509425,VALID,19.0853,VALID,117,VALID,0.580305,
2005-05-28, 02:49:00,VALID,916.147,VALID,0,VALID,100,VALID,-0.0509425,VALID,19.0825,VALID,117,VALID,0.583394,
2005-05-28, 02:50:00,VALID,916.156,VALID,0,VALID,100,VALID,-0.0509425,VALID,19.0246,VALID,117,VALID,0.490734,
2005-05-28, 02:51:00,VALID,916.143,VALID,0,VALID,100,VALID,0,VALID,18.9924,VALID,117,VALID,0.602805,
2005-05-28, 02:52:00,VALID,916.14,VALID,0,VALID,100,VALID,0.0679233,VALID,19.0071,VALID,117,VALID,0.859738,
2005-05-28, 02:53:00,VALID,916.145,VALID,0,VALID,100,VALID,0.0849042,VALID,19.026,VALID,117,VALID,0.930259,
2005-05-28, 02:54:00,VALID,916.136,VALID,0,VALID,100,VALID,0.0849042,VALID,19.017,VALID,117,VALID,0.629383,
2005-05-28, 02:55:00,VALID,916.114,VALID,0,VALID,100,VALID,0.101885,VALID,18.9971,VALID,116,VALID,1.00381,
2005-05-28, 02:56:00,VALID,916.106,VALID,0,VALID,100,VALID,0.101885,VALID,19.0068,VALID,106,VALID,0.786458,
2005-05-28, 02:57:00,VALID,916.092,VALID,0,VALID,100,VALID,0.101885,VALID,18.984,VALID,98,VALID,0.854759,
2005-05-28, 02:58:00,VALID,916.08,VALID,0,VALID,100,VALID,0.0849042,VALID,18.9999,VALID,97,VALID,0.883789,
2005-05-28, 02:59:00,VALID,916.075,VALID,0,VALID,100,VALID,0.101885,VALID,19.0197,VALID,84,VALID,0.957961,
2005-05-28, 03:00:00,VALID,916.057,VALID,0,VALID,100,VALID,0.101885,VALID,19.0098,VALID,81,VALID,0.990412,
2005-05-28, 03:01:00,VALID,916.06,VALID,0,VALID,100,VALID,0.101885,VALID,19.0004,VALID,81,VALID,0.88058,
2005-05-28, 03:02:00,VALID,916.046,VALID,0,VALID,100,VALID,0.101885,VALID,18.9879,VALID,85,VALID,0.955171,
2005-05-28, 03:03:00,VALID,916.059,VALID,0,VALID,100,VALID,0.118866,VALID,18.9713,VALID,100,VALID,0.963068,
2005-05-28, 03:04:00,VALID,916.064,VALID,0,VALID,100,VALID,0.101885,VALID,18.952,VALID,104,VALID,0.973958,
2005-05-28, 03:05:00,VALID,916.072,VALID,0,VALID,100,VALID,0.0849042,VALID,18.9328,VALID,110,VALID,0.992746,
2005-05-28, 03:06:00,VALID,916.082,VALID,0,VALID,100,VALID,0.118866,VALID,18.9132,VALID,107,VALID,0.816406,
2005-05-28, 03:07:00,VALID,916.098,VALID,0,VALID,100,VALID,0.0169808,VALID,18.8791,VALID,110,VALID,0.697856,
2005-05-28, 03:08:00,VALID,916.083,VALID,0,VALID,100,VALID,0,VALID,18.8662,VALID,122,VALID,0.969815,
2005-05-28, 03:09:00,VALID,916.085,VALID,0,VALID,100,VALID,0.0169808,VALID,18.8861,VALID,116,VALID,1.2951,
2005-05-28, 03:10:00,VALID,916.079,VALID,0,VALID,100,VALID,0,VALID,18.8886,VALID,115,VALID,1.19895,
2005-05-28, 03:11:00,VALID,916.072,VALID,0,VALID,100,VALID,0,VALID,18.8856,VALID,111,VALID,1.16479,
2005-05-28, 03:12:00,VALID,916.048,VALID,0,VALID,100,VALID,0,VALID,18.8794,VALID,125,VALID,1.23115,
2005-05-28, 03:13:00,VALID,916.041,VALID,0,VALID,100,VALID,0,VALID,18.8826,VALID,119,VALID,0.821039,
2005-05-28, 03:14:00,VALID,916.042,VALID,0,VALID,100,VALID,0,VALID,18.8729,VALID,116,VALID,1.0101,
2005-05-28, 03:15:00,VALID,916.05,VALID,0,VALID,100,VALID,0.0169808,VALID,18.8729,VALID,127,VALID,0.953993,
2005-05-28, 03:16:00,VALID,916.057,VALID,0,VALID,100,VALID,0.0169808,VALID,18.8593,VALID,123,VALID,0.979911,
2005-05-28, 03:17:00,VALID,916.052,VALID,0,VALID,100,VALID,-0.0169808,VALID,18.8662,VALID,128,VALID,1.1399,
2005-05-28, 03:18:00,VALID,916.042,VALID,0,VALID,100,VALID,0,VALID,18.8955,VALID,104,VALID,1.20255,
2005-05-28, 03:19:00,VALID,916.028,VALID,0,VALID,100,VALID,0,VALID,18.8918,VALID,103,VALID,0.691939,
2005-05-28, 03:20:00,VALID,916.002,VALID,0,VALID,100,VALID,-0.0169808,VALID,18.898,VALID,113,VALID,1.27813,
2005-05-28, 03:21:00,VALID,915.995,VALID,0,VALID,100,VALID,0,VALID,18.9146,VALID,126,VALID,0.837109,
2005-05-28, 03:22:00,VALID,915.982,VALID,0,VALID,100,VALID,0,VALID,18.9084,VALID,117,VALID,0.708757,
2005-05-28, 03:23:00,VALID,915.958,VALID,0,VALID,100,VALID,-0.0169808,VALID,18.9156,VALID,119,VALID,0.776042,
2005-05-28, 03:24:00,VALID,915.94,VALID,0,VALID,100,VALID,0,VALID,18.925,VALID,127,VALID,0.975497,
2005-05-28, 03:25:00,VALID,915.934,VALID,0,VALID,100,VALID,0,VALID,18.9116,VALID,115,VALID,0.719703,
2005-05-28, 03:26:00,VALID,915.94,VALID,0,VALID,100,VALID,-0.0169808,VALID,18.9211,VALID,120,VALID,0.841797,
2005-05-28, 03:27:00,VALID,915.932,VALID,0,VALID,100,VALID,-0.0169808,VALID,18.9179,VALID,118,VALID,0.560023,
2005-05-28, 03:28:00,VALID,915.936,VALID,0,VALID,100,VALID,0.0169808,VALID,18.9179,VALID,120,VALID,0.51456,
2005-05-28, 03:29:00,VALID,915.934,VALID,0,VALID,100,VALID,0,VALID,18.9342,VALID,131,VALID,0.557351,
2005-05-28, 03:30:00,VALID,915.947,VALID,0,VALID,100,VALID,0,VALID,18.9502,VALID,131,VALID,0.422276,
2005-05-28, 03:31:00,VALID,915.964,VALID,0,VALID,100,VALID,0,VALID,18.9794,VALID,134,VALID,0.603299,
2005-05-28, 03:32:00,VALID,915.981,VALID,0,VALID,100,VALID,-0.0169808,VALID,19.0018,VALID,133,VALID,0.324491,
2005-05-28, 03:33:00,VALID,915.989,VALID,0,VALID,100,VALID,0,VALID,19.0184,VALID,133,VALID,0.384673,
2005-05-28, 03:34:00,VALID,915.992,VALID,0,VALID,100,VALID,0.0169808,VALID,19.0343,VALID,131,VALID,0.65987,
2005-05-28, 03:35:00,VALID,916.008,VALID,0,VALID,100,VALID,0,VALID,19.0567,VALID,128,VALID,0.752418,
2005-05-28, 03:36:00,VALID,916.004,VALID,0,VALID,100,VALID,-0.0169808,VALID,19.1024,VALID,127,VALID,0.527435,
2005-05-28, 03:37:00,VALID,916.001,VALID,0,VALID,100,VALID,0.0169808,VALID,19.0957,VALID,117,VALID,0.776526,
2005-05-28, 03:38:00,VALID,916.001,VALID,0,VALID,100,VALID,-0.0169808,VALID,19.1121,VALID,117,VALID,0.62035,
2005-05-28, 03:39:00,VALID,916.006,VALID,0,VALID,100,VALID,0,VALID,19.0924,VALID,105,VALID,0.686111,
2005-05-28, 03:40:00,VALID,916.023,VALID,0,VALID,100,VALID,0,VALID,19.0957,VALID,85,VALID,0.692224,